Preview of NWS' New Version of Forecast
This preview is not operational and should not be used for support decisions.

Regional Weather Roundup (RWR)

Issued by Eureka, CA (EKA)

                            
000
ASUS46 KEKA 200914
RWREKA
Eureka Area Weather Roundup
National Weather Service Eureka CA
100 AM PST WED FEB 20 2019

Note: "fair" indicates few or no clouds below 12,000 feet with no
significant weather and/or obstructions to visibility.

Southwest Oregon...
  
CITY           SKY/WX    TMP DP  RH WIND       PRES   REMARKS
MEDFORD        LGT RAIN  36  32  85 N3        29.99F                  
KLAMATH FALLS  LGT SNOW  29  24  82 SW10      29.87F                  
NORTH BEND     LGT RAIN  45  40  82 NW17G26   30.05F                  
ROSEBURG       LGT RAIN  41  38  89 CALM      30.00F                  
SEXTON SUMMIT  SNOW      28  28 100 SW10G18   29.90F VSB 1/4          
BROOKINGS      CLOUDY    43  42  97 NW7       30.07F                  

Northwest California...
  
CITY           SKY/WX    TMP DP  RH WIND       PRES   REMARKS
CRESCENT CITY  LGT RAIN  44  42  93 N9        30.11F                  
MCKINLEYVILLE  LGT RAIN  42  41  96 S5        30.11F FOG              
EUREKA         LGT RAIN  42  32  67 S8        30.12F                  
FORTUNA        CLOUDY    37  37 100 CALM      30.12F                  
WEAVERVILLE    NOT AVBL                                               
TRINITY CENTER MOCLDY    32  28  86 CALM      30.00F                  
UKIAH          PTCLDY    42  32  67 N5        30.09F                  

North & Central California...
  
CITY           SKY/WX    TMP DP  RH WIND       PRES   REMARKS
YREKA          CLOUDY    32  26  78 S7        29.97F                  
MOUNT SHASTA   PTCLDY    29  23  78 CALM      29.93F                  
REDDING        CLOUDY    46  30  53 S9        30.02F                  
RED BLUFF      CLOUDY    43  32  65 S5        30.06S                  
CHICO            N/A     46  25  42 E6        30.05                   
YUBA CITY      CLOUDY    46  33  60 SE14      30.04F                  
SACRAMENTO     MOCLDY    44  35  70 SE8       30.05F                  
SANTA ROSA     MOCLDY    45  35  68 NW9       30.05F                  
NAPA           MOCLDY    45  39  79 W16       30.06S                  
TRAVIS AFB     NOT AVBL                                               
SAN FRANCISCO  MOCLDY    50  39  66 W20       30.08F                  
OAKLAND        CLOUDY    49  41  74 W15       30.08F                  
STOCKTON       NOT AVBL                                               
SALINAS        CLOUDY    46  41  82 E5        30.11F                  
MONTEREY       CLOUDY    47  43  86 S6        30.12F                  

$$